KE7JVX-3 Weather Reports


Display with metric or nautical units.
time (UTC)temp
F
wind
direction
speed
MPH
gust
MPH
rain 1hr
in
rain 24hr
in
rain mn
in
humidity
%
barometer
mb
20260507110928 41 56 7.0 13.0 0.00 0.00 0.00 36 1012.4
20260507105928 42 55 8.0 15.0 0.00 0.00 0.00 34 1012.4
20260507104928 42 60 9.0 14.0 0.00 0.00 0.00 34 1012.4
20260507103928 43 59 9.0 13.0 0.00 0.00 0.00 34 1012.4
20260507102928 44 60 9.0 17.0 0.00 0.00 0.00 34 1012.4
20260507101928 43 58 10.0 16.0 0.00 0.00 0.00 34 1012.4
20260507100929 43 55 9.0 15.0 0.00 0.00 0.00 34 1012.5
20260507095928 43 60 9.0 16.0 0.00 0.00 0.00 34 1012.5
20260507094928 43 54 9.0 13.0 0.00 0.00 0.00 34 1012.6
20260507093928 43 58 9.0 14.0 0.00 0.00 0.00 34 1012.6
20260507092928 43 56 8.0 13.0 0.00 0.00 0.00 34 1012.6
20260507091928 43 56 7.0 13.0 0.00 0.00 0.00 34 1012.7
20260507090928 43 58 7.0 11.0 0.00 0.00 0.00 34 1012.7
20260507085928 43 54 6.0 10.0 0.00 0.00 0.00 34 1012.8
20260507084928 43 49 5.0 10.0 0.00 0.00 0.00 34 1013.0
20260507083928 43 54 6.0 10.0 0.00 0.00 0.00 35 1013.1
20260507082927 42 48 5.0 9.0 0.00 0.00 0.00 35 1013.2
20260507081928 42 56 6.0 10.0 0.00 0.00 0.00 35 1013.2
20260507080928 43 54 5.0 9.0 0.00 0.00 0.00 34 1013.3
20260507080014 43 51 4.0 7.0 0.00 0.00 0.00 34 1013.4
20260507075928 43 51 4.0 7.0 0.00 0.00 0.00 34 1013.4
20260507074928 44 52 4.0 7.0 0.00 0.00 0.00 31 1013.4
20260507073928 45 176 1.0 2.0 0.00 0.00 0.00 29 1013.4
20260507072928 45 176 1.0 4.0 0.00 0.00 0.00 29 1013.4
20260507071928 45 0 0.0 4.0 0.00 0.00 0.00 29 1013.4
20260507070928 45 182 3.0 5.0 0.00 0.00 0.00 30 1013.3
20260507065928 45 0 0.0 3.0 0.00 0.00 0.00 30 1013.4
20260507064933 45 140 1.0 3.0 0.00 0.00 0.00 30 1013.4
20260507063928 45 0 0.0 2.0 0.00 0.00 0.00 29 1013.4
20260507063022 45 0 0.0 4.0 0.00 0.00 0.00 29 1013.4
20260507062928 45 0 0.0 4.0 0.00 0.00 0.00 29 1013.4
20260507061929 46 140 2.0 4.0 0.00 0.00 0.00 28 1013.4
20260507060930 46 140 2.0 4.0 0.00 0.00 0.00 28 1013.4
20260507055929 46 0 0.0 2.0 0.00 0.00 0.00 28 1013.4
20260507054928 46 140 1.0 4.0 0.00 0.00 0.00 28 1013.4
20260507053928 46 126 2.0 3.0 0.00 0.00 0.00 28 1013.4
20260507052928 46 0 0.0 4.0 0.00 0.00 0.00 28 1013.4
20260507052052 47 122 2.0 6.0 0.00 0.00 0.00 27 1013.3
20260507051928 47 122 2.0 6.0 0.00 0.00 0.00 27 1013.3
20260507050927 47 122 3.0 5.0 0.00 0.00 0.00 28 1013.3
20260507045929 47 121 3.0 7.0 0.00 0.00 0.00 27 1013.2
20260507044928 47 115 4.0 7.0 0.00 0.00 0.00 27 1013.2
20260507043928 47 92 3.0 8.0 0.00 0.00 0.00 28 1013.1
20260507042928 47 83 4.0 7.0 0.00 0.00 0.00 28 1013.1
20260507042034 47 82 4.0 7.0 0.00 0.00 0.00 28 1013.0
20260507041928 47 82 4.0 7.0 0.00 0.00 0.00 28 1013.0
20260507040928 46 86 4.0 7.0 0.00 0.00 0.00 29 1012.9
20260507035927 46 62 3.0 5.0 0.00 0.00 0.00 29 1012.8
20260507034928 46 62 3.0 5.0 0.00 0.00 0.00 29 1012.7
20260507034044 46 68 3.0 5.0 0.00 0.00 0.00 29 1012.6
20260507033928 46 68 3.0 5.0 0.00 0.00 0.00 29 1012.6
20260507032927 45 65 2.0 4.0 0.00 0.00 0.00 30 1012.6
20260507031927 45 63 3.0 5.0 0.00 0.00 0.00 31 1012.5
20260507030936 44 354 1.0 3.0 0.00 0.00 0.00 32 1012.3
20260507025927 43 343 1.0 4.0 0.00 0.00 0.00 34 1012.2
20260507025259 43 315 3.0 9.0 0.00 0.00 0.00 34 1012.1
20260507024927 43 315 3.0 9.0 0.00 0.00 0.00 34 1012.1
20260507024256 43 326 1.0 10.0 0.00 0.00 0.00 35 1012.1
20260507023927 43 326 1.0 10.0 0.00 0.00 0.00 35 1012.1
20260507022927 44 303 6.0 11.0 0.00 0.00 0.00 36 1012.0
20260507021928 44 293 8.0 11.0 0.00 0.00 0.00 35 1012.0
20260507020928 44 303 6.0 9.0 0.00 0.00 0.00 35 1012.0
20260507015928 45 306 6.0 11.0 0.00 0.00 0.00 34 1011.9
20260507014928 46 305 5.0 11.0 0.00 0.00 0.00 34 1011.9
20260507013927 46 304 5.0 11.0 0.00 0.00 0.00 33 1011.8
20260507012927 47 300 7.0 10.0 0.00 0.00 0.00 33 1011.8
20260507011927 47 304 6.0 10.0 0.00 0.00 0.00 31 1011.8
20260507010928 48 295 6.0 9.0 0.00 0.00 0.00 31 1011.8
20260507005927 49 306 5.0 12.0 0.00 0.00 0.00 32 1011.8
20260507004927 49 303 3.0 13.0 0.00 0.00 0.00 32 1011.7
20260507003927 49 300 6.0 12.0 0.00 0.00 0.00 31 1011.6
20260507002927 50 311 4.0 9.0 0.00 0.00 0.00 30 1011.5
20260507001927 50 272 3.0 7.0 0.00 0.00 0.00 30 1011.6
20260507000929 50 299 7.0 12.0 0.00 0.00 0.00 30 1011.5
20260506235928 50 308 3.0 12.0 0.00 0.00 0.00 29 1011.5
20260506234928 49 277 7.0 12.0 0.00 0.00 0.00 31 1011.5
20260506233928 50 267 5.0 11.0 0.00 0.00 0.00 29 1011.5
20260506232928 50 342 1.0 8.0 0.00 0.00 0.00 29 1011.3
20260506231928 50 316 3.0 11.0 0.00 0.00 0.00 30 1011.4
20260506230928 50 324 2.0 16.0 0.00 0.00 0.00 30 1011.4
20260506225928 49 269 9.0 17.0 0.00 0.00 0.00 30 1011.5
20260506224930 51 343 2.0 12.0 0.00 0.00 0.00 27 1011.5
20260506224251 50 338 4.0 10.0 0.00 0.00 0.00 28 1011.5
20260506223928 50 338 4.0 10.0 0.00 0.00 0.00 28 1011.5
20260506222928 50 351 2.0 9.0 0.00 0.00 0.00 30 1011.5
20260506221928 49 337 2.0 15.0 0.00 0.00 0.00 29 1011.6
20260506221318 49 302 7.0 15.0 0.00 0.00 0.00 30 1011.6
20260506220927 49 302 7.0 15.0 0.00 0.00 0.00 30 1011.6
20260506215927 50 304 2.0 12.0 0.00 0.00 0.00 28 1011.5
20260506214929 50 336 2.0 12.0 0.00 0.00 0.00 32 1011.6
20260506214327 49 301 8.0 17.0 0.00 0.00 0.00 32 1011.7
20260506213927 49 301 8.0 17.0 0.00 0.00 0.00 32 1011.7
20260506212927 49 273 6.0 14.0 0.00 0.00 0.00 34 1011.6
20260506211428 50 317 3.0 12.0 0.00 0.00 0.00 33 1011.7
20260506210650 49 335 3.0 9.0 0.00 0.00 0.00 34 1011.6
20260506210428 49 335 3.0 9.0 0.00 0.00 0.00 34 1011.6
20260506205428 48 279 5.0 11.0 0.00 0.00 0.00 33 1011.8
20260506204428 48 283 2.0 8.0 0.00 0.00 0.00 33 1011.8
20260506203720 46 322 2.0 10.0 0.00 0.00 0.00 34 1011.7
20260506203429 46 322 2.0 10.0 0.00 0.00 0.00 34 1011.7
20260506202428 46 243 3.0 15.0 0.00 0.00 0.00 34 1011.7
20260506201745 47 252 7.0 15.0 0.00 0.00 0.00 34 1011.7
20260506201429 47 252 7.0 15.0 0.00 0.00 0.00 34 1011.7
20260506200428 46 263 4.0 18.0 0.00 0.00 0.00 38 1011.7
20260506195430 46 259 7.0 13.0 0.00 0.00 0.00 35 1011.7
20260506194428 46 243 3.0 9.0 0.00 0.00 0.00 36 1011.8
20260506193428 46 249 2.0 10.0 0.00 0.00 0.00 40 1011.8
20260506192428 46 269 4.0 9.0 0.00 0.00 0.00 37 1011.8
20260506191429 45 240 6.0 11.0 0.00 0.00 0.00 40 1011.8
20260506190428 45 269 3.0 13.0 0.00 0.00 0.00 43 1011.7
20260506185428 45 273 6.0 11.0 0.00 0.00 0.00 41 1011.7
20260506184428 44 256 3.0 10.0 0.00 0.00 0.00 42 1011.7
20260506183434 44 262 3.0 9.0 0.00 0.00 0.00 43 1011.7
20260506182428 43 0 0.0 4.0 0.00 0.00 0.00 44 1011.8
20260506181428 42 309 3.0 9.0 0.00 0.00 0.00 43 1011.8
20260506180428 41 272 1.0 8.0 0.00 0.00 0.00 45 1011.7
20260506175428 42 282 2.0 9.0 0.00 0.00 0.00 48 1011.7
20260506174428 41 276 2.0 10.0 0.00 0.00 0.00 47 1011.7
20260506173428 40 304 2.0 7.0 0.00 0.00 0.00 49 1011.6
20260506172428 40 251 4.0 9.0 0.00 0.00 0.00 49 1011.5
20260506171428 40 274 4.0 8.0 0.00 0.00 0.00 53 1011.4
20260506170428 40 265 3.0 8.0 0.00 0.00 0.00 50 1011.3
20260506165428 40 192 2.0 9.0 0.00 0.00 0.00 52 1011.3
20260506164428 39 258 1.0 7.0 0.00 0.00 0.00 54 1011.3
20260506163429 39 235 2.0 7.0 0.00 0.00 0.00 50 1011.2
20260506162428 39 228 1.0 8.0 0.00 0.00 0.00 53 1011.1
20260506161428 39 220 1.0 4.0 0.00 0.00 0.00 53 1011.0
20260506160428 39 0 0.0 7.0 0.00 0.00 0.00 51 1011.0
20260506155428 39 171 2.0 6.0 0.00 0.00 0.00 50 1010.9
20260506154429 39 148 1.0 7.0 0.00 0.00 0.00 48 1010.8
20260506153429 39 0 0.0 3.0 0.00 0.00 0.00 45 1010.7
20260506152429 39 0 0.0 2.0 0.00 0.00 0.00 46 1010.8
20260506151431 38 0 0.0 3.0 0.00 0.01 0.00 41 1010.7
20260506150431 38 0 0.0 5.0 0.00 0.04 0.00 43 1010.5
20260506145428 38 0 0.0 6.0 0.00 0.08 0.00 40 1010.6
20260506144428 37 58 1.0 7.0 0.00 0.11 0.00 49 1010.4
20260506143428 36 313 1.0 4.0 0.00 0.15 0.00 46 1010.4
20260506142428 35 0 0.0 9.0 0.00 0.22 0.00 54 1010.3
20260506141428 35 308 2.0 6.0 0.00 0.24 0.00 53 1010.2
20260506140428 35 322 3.0 8.0 0.00 0.29 0.00 53 1010.2
20260506135428 35 349 3.0 10.0 0.00 0.30 0.00 54 1010.1
20260506134428 34 354 4.0 10.0 0.00 0.32 0.00 54 1010.0
20260506133428 34 317 5.0 10.0 0.00 0.32 0.00 54 1009.9
20260506132428 34 319 5.0 9.0 0.00 0.32 0.00 54 1009.8
20260506131428 33 338 4.0 9.0 0.00 0.33 0.00 56 1009.8
20260506130428 33 326 6.0 11.0 0.00 0.34 0.00 56 1009.7
20260506125428 33 315 6.0 12.0 0.00 0.37 0.00 56 1009.6
20260506124428 32 311 9.0 14.0 0.00 0.38 0.00 56 1009.5
20260506123428 32 309 9.0 13.0 0.00 0.39 0.00 57 1009.5
20260506122428 33 306 10.0 16.0 0.00 0.40 0.00 56 1009.3
20260506121428 32 314 10.0 14.0 0.00 0.40 0.00 57 1009.3
20260506120428 32 309 9.0 15.0 0.00 0.41 0.00 58 1009.2
20260506115428 32 302 10.0 16.0 0.00 0.41 0.00 57 1009.2
20260506114758 32 309 9.0 14.0 0.00 0.41 0.00 58 1009.4
20260506114428 32 309 9.0 14.0 0.00 0.41 0.00 58 1009.4
20260506113639 32 304 9.0 15.0 0.00 0.41 0.00 57 1009.2
20260506113428 32 304 9.0 15.0 0.00 0.41 0.00 57 1009.2
20260506112428 32 300 9.0 17.0 0.00 0.41 0.00 58 1009.2
20260506111546 32 300 11.0 16.0 0.00 0.41 0.00 57 1009.2
20260506111428 32 300 11.0 16.0 0.00 0.41 0.00 57 1009.2